Wind_Speed
11 11 11 11 11 12 12 12 12 12 12 12 12 12 12 12 13 13 13 13 13 12 12 13 13 14 14 14 14 15 15 15 15 15 15 15 15 15 14 14 13 13 13
11 12 12 12 12 12 12 12 12 12 12 11 12 11 11 12 13 14 13 13 13 12 13 13 13 13 13 13 14 14 15 15 15 15 16 16 16 15 15 14 14 14 13
12 12 12 12 11 12 12 12 12 12 11 12 12 12 12 13 13 13 13 14 14 13 13 13 13 14 14 14 14 14 14 15 15 15 15 15 15 15 15 14 14 14 14
12 12 11 11 11 11 11 11 12 12 12 13 13 13 13 13 13 13 14 14 14 15 14 14 14 14 14 14 14 14 15 15 15 15 15 14 14 15 15 14 14 14 14
11 11 11 10 11 11 11 11 12 12 12 12 13 13 13 12 12 13 13 14 14 14 14 14 14 15 14 14 15 15 15 15 15 15 15 14 14 14 14 14 14 14 14
10 10 10 10 11 11 11 12 12 12 12 12 12 12 12 12 12 13 13 14 14 14 14 13 14 15 14 15 15 15 15 15 15 15 15 15 15 15 15 14 14 14 14
11 11 11 11 11 12 12 12 12 12 12 12 12 12 12 12 13 13 13 14 14 14 14 14 14 14 14 15 15 15 14 14 15 15 15 15 15 15 15 15 15 14 14
12 12 11 12 12 12 12 12 12 12 13 13 13 13 13 14 13 13 14 14 14 14 14 15 15 15 14 14 15 15 14 15 15 15 16 16 16 16 15 15 15 15 15
12 12 12 12 13 13 12 12 13 13 13 14 14 14 14 14 15 15 15 15 14 14 15 15 16 16 16 16 15 14 15 15 16 16 16 16 16 17 16 17 17 16 16
13 13 13 13 13 13 14 14 14 14 14 15 15 15 16 16 17 17 16 16 16 16 16 16 17 17 17 17 17 16 16 16 16 17 17 17 18 19 19 19 19 18 17
14 14 14 15 15 15 15 15 15 15 16 16 17 17 17 17 17 17 17 17 18 18 18 18 17 17 18 18 17 18 17 18 17 17 18 18 19 19 20 20 20 20 19
15 15 15 16 17 17 17 17 17 17 17 18 18 18 18 18 18 18 18 18 19 19 19 19 19 18 19 19 19 18 18 19 19 19 19 20 20 21 20 20 21 21 21
16 16 17 17 18 18 19 19 19 18 19 19 19 19 19 19 19 19 19 18 18 19 19 20 20 20 20 20 20 20 20 20 20 20 21 22 22 22 21 21 22 22 22
18 19 19 19 19 20 20 20 20 21 21 21 20 20 20 20 20 20 20 20 20 20 20 21 21 22 21 21 21 21 20 21 21 21 21 22 23 23 23 22 23 22 22
20 20 20 20 20 20 21 21 22 22 22 22 21 21 21 21 21 22 22 21 22 22 22 22 23 23 23 23 23 22 22 22 22 22 22 22 23 24 25 25 25 24 23
21 21 21 21 22 22 22 23 23 23 23 23 22 22 22 22 23 23 23 24 24 23 23 23 24 25 25 24 24 24 24 23 23 23 23 23 24 25 25 25 26 26 25
22 22 22 23 23 23 24 24 24 24 24 24 24 24 23 23 24 24 25 25 25 25 24 24 25 26 26 26 26 26 26 26 25 25 25 25 25 25 25 25 25 26 26
23 23 24 24 24 24 25 25 25 25 25 25 25 25 25 25 25 25 25 26 26 26 26 25 26 26 27 28 28 28 27 27 26 26 26 26 26 25 25 25 25 26 26
24 24 24 24 24 25 25 25 26 25 25 26 26 26 26 26 26 26 26 27 27 27 27 27 26 27 28 28 29 28 28 28 27 27 27 27 26 26 25 25 25 25 25
25 24 24 24 25 25 26 26 26 26 26 26 26 26 27 27 27 27 27 27 28 28 28 28 28 28 28 28 28 29 29 29 29 29 28 28 27 26 26 26 26 26 26
25 26 26 25 25 25 26 26 26 26 26 26 26 26 27 27 27 28 28 29 28 28 28 29 29 29 29 29 29 29 29 29 30 29 29 29 29 28 28 27 27 27 28
27 27 27 26 26 26 26 26 26 27 27 27 27 27 27 27 28 28 29 29 28 28 28 29 29 29 29 29 29 29 29 30 30 30 30 30 30 30 29 28 28 27 27
28 27 27 28 27 27 27 27 27 27 28 28 28 28 28 28 29 29 29 29 29 30 30 29 29 29 29 28 30 30 31 30 31 31 31 30 30 31 31 31 29 28 28
28 29 29 29 28 28 29 28 28 28 29 28 28 28 28 29 29 29 29 30 30 30 29 29 29 28 29 29 29 30 30 31 31 31 31 31 31 31 32 32 31 31 29
29 29 29 29 29 30 29 29 29 29 29 29 28 28 28 28 29 30 30 30 30 30 30 30 30 29 30 31 31 30 30 30 30 30 30 30 31 31 31 31 31 31 31
29 29 30 30 30 30 30 30 30 30 30 30 29 29 29 29 29 29 29 29 29 30 30 30 31 31 31 31 31 31 31 31 31 30 30 30 30 31 31 31 32 32 32
Wind_Direction
287 288 287 286 284 283 282 283 282 277 270 270 268 264 261 262 259 259 257 257 258 260 258 255 255 257 259 261 259 258 259 260 261 262 263 264 263 263 264 266 266 267 267
288 289 290 288 286 284 280 277 277 277 272 270 269 265 263 260 257 256 259 259 260 260 259 259 258 260 261 260 260 258 258 259 261 262 262 263 264 262 262 262 264 265 267
288 290 291 288 284 284 283 279 276 274 269 269 268 263 263 263 264 264 265 264 263 263 262 262 263 264 264 262 260 259 260 262 261 261 261 261 262 260 260 261 262 266 267
291 292 291 289 287 285 284 282 279 274 270 269 267 266 266 267 269 271 269 267 264 264 265 264 265 265 266 264 262 260 260 263 260 259 259 260 259 259 260 260 260 263 265
294 292 290 289 290 289 288 285 281 277 273 271 270 269 268 268 270 270 269 268 268 267 267 266 264 265 266 266 265 263 262 261 261 258 257 258 258 258 260 261 260 261 262
288 288 288 288 289 290 289 286 281 277 273 272 271 269 267 267 268 268 268 270 271 270 269 266 265 265 266 265 264 265 264 259 259 258 258 258 258 259 259 260 261 261 260
285 284 287 287 288 288 290 289 283 276 273 270 272 271 268 267 268 267 269 269 270 270 270 269 268 265 266 265 265 265 263 260 260 258 257 258 259 258 259 258 260 258 258
285 285 286 286 284 286 288 290 287 278 272 272 272 272 271 270 268 268 269 268 267 268 269 271 270 269 266 265 266 265 262 260 260 260 258 259 259 258 257 258 259 259 258
286 286 285 283 282 283 285 288 288 281 274 273 272 273 272 271 271 270 270 268 267 267 269 271 271 270 267 266 267 265 261 261 260 260 260 259 260 259 259 259 259 259 261
285 286 286 284 283 282 282 285 286 284 277 274 273 274 274 273 272 270 270 270 269 268 269 269 270 270 268 268 267 266 263 262 262 261 260 261 261 261 261 261 261 261 262
284 284 286 286 284 283 283 283 284 283 280 278 277 276 274 273 271 269 268 270 270 270 268 268 269 270 270 270 269 268 268 266 263 264 262 262 262 262 262 262 262 261 261
282 284 284 285 284 283 282 282 281 282 282 279 277 275 273 273 272 271 269 268 270 270 268 266 265 268 270 270 270 271 270 268 266 266 264 263 264 264 262 263 263 263 261
283 285 285 285 284 284 282 281 281 281 281 280 278 276 273 272 272 272 270 268 269 268 268 266 265 266 268 268 267 269 270 269 269 268 267 265 266 266 265 264 263 263 261
285 287 287 286 284 283 282 281 280 281 280 279 278 275 272 273 271 271 271 269 267 267 267 266 266 266 267 267 267 268 270 270 270 268 268 267 268 266 266 266 263 263 264
285 287 286 285 285 284 282 281 280 280 279 278 277 274 272 273 272 271 270 271 270 269 268 267 267 267 267 267 267 268 269 269 270 270 269 269 269 269 268 266 265 263 262
285 285 285 284 284 283 283 282 280 279 278 277 276 275 272 273 273 272 270 270 270 270 270 267 265 266 268 268 267 267 268 270 270 270 271 272 272 271 270 268 264 262 261
286 285 284 283 283 283 283 283 282 280 278 277 276 275 273 273 273 273 272 271 271 271 271 269 266 265 267 269 269 268 268 270 270 271 272 272 272 272 270 268 266 263 262
285 285 284 283 283 283 284 283 281 279 277 277 277 275 274 274 274 273 273 272 271 272 271 270 269 267 267 269 269 268 268 270 270 271 271 272 272 271 269 267 265 263 262
285 285 285 285 284 284 285 284 282 280 278 276 275 275 275 275 274 273 273 272 272 272 272 271 270 269 268 268 268 268 268 269 270 271 271 271 271 269 268 266 264 263 261
285 285 285 285 286 285 285 284 282 281 279 277 276 275 275 275 274 273 273 272 272 271 272 272 271 270 269 268 268 267 268 268 269 270 270 270 269 268 267 267 264 262 262
284 284 285 285 285 286 286 283 281 280 280 279 278 277 275 274 274 274 274 273 272 271 272 271 271 269 269 269 268 268 267 268 268 269 270 269 268 267 267 267 266 264 263
283 283 284 284 284 284 285 284 282 280 280 280 279 278 276 273 274 275 275 274 272 271 272 272 271 270 269 269 268 267 268 267 268 269 269 269 268 267 267 265 265 266 263
282 283 283 283 283 283 283 283 281 280 281 280 279 278 276 275 275 275 275 274 273 270 271 272 272 272 270 267 268 268 269 270 269 268 268 268 267 266 266 265 265 266 264
283 283 283 282 281 281 281 281 280 279 280 280 280 279 277 276 275 275 276 275 273 271 271 272 272 271 270 269 270 270 270 270 270 269 268 267 267 266 266 266 265 265 263
282 282 281 281 281 282 282 282 281 279 279 278 278 279 279 278 277 276 275 274 273 271 271 271 271 271 271 271 271 271 272 271 270 269 268 267 266 266 266 266 265 264 263
282 282 281 281 282 283 282 282 281 280 278 277 277 278 278 277 277 276 275 275 273 273 273 272 271 271 272 272 270 270 271 272 271 268 267 268 268 268 266 265 265 264 263
Height
5844 5843 5843 5842 5841 5841 5840 5840 5840 5840 5839 5839 5840 5840 5840 5841 5842 5842 5843 5843 5843 5843 5843 5844 5844 5845 5845 5846 5846 5847 5848 5848 5849 5849 5850 5850 5850 5851 5851 5852 5852 5852 5852
5841 5840 5840 5839 5838 5837 5837 5837 5836 5837 5837 5837 5837 5837 5837 5838 5838 5839 5839 5840 5840 5840 5840 5841 5841 5842 5842 5843 5843 5844 5844 5844 5845 5846 5846 5847 5847 5847 5848 5848 5849 5849 5849
5838 5837 5836 5836 5835 5834 5834 5833 5833 5833 5833 5834 5834 5834 5835 5835 5835 5836 5836 5836 5837 5837 5837 5838 5838 5838 5839 5839 5840 5840 5841 5841 5841 5842 5842 5843 5843 5844 5844 5845 5845 5846 5846
5835 5834 5833 5833 5832 5831 5831 5830 5830 5830 5830 5830 5831 5831 5831 5832 5832 5833 5833 5833 5833 5834 5834 5834 5835 5835 5835 5836 5836 5837 5837 5837 5838 5838 5839 5839 5840 5840 5841 5842 5842 5843 5843
5832 5832 5831 5830 5829 5829 5828 5828 5827 5827 5827 5827 5827 5827 5828 5829 5829 5829 5830 5830 5830 5830 5831 5831 5831 5832 5832 5832 5833 5833 5833 5833 5834 5834 5835 5835 5836 5837 5837 5838 5839 5839 5840
5830 5829 5828 5827 5827 5826 5825 5825 5824 5824 5823 5823 5824 5824 5825 5825 5825 5826 5826 5826 5827 5827 5827 5828 5828 5828 5828 5828 5829 5829 5829 5830 5830 5831 5831 5832 5833 5833 5834 5834 5835 5835 5836
5827 5826 5826 5825 5824 5823 5823 5822 5821 5820 5820 5820 5821 5821 5821 5822 5822 5822 5823 5823 5823 5824 5824 5824 5824 5824 5825 5825 5825 5825 5825 5826 5827 5827 5828 5828 5829 5830 5830 5831 5831 5832 5832
5824 5824 5823 5822 5821 5821 5820 5819 5817 5817 5817 5817 5817 5818 5818 5819 5819 5819 5819 5819 5820 5820 5820 5821 5821 5821 5821 5821 5821 5821 5822 5822 5823 5823 5824 5825 5825 5825 5826 5827 5827 5827 5827
5821 5821 5820 5819 5818 5818 5817 5816 5815 5814 5814 5814 5814 5814 5814 5814 5814 5815 5815 5815 5816 5816 5816 5817 5817 5817 5817 5817 5817 5817 5818 5818 5818 5819 5820 5820 5821 5821 5822 5822 5823 5823 5824
5818 5817 5816 5816 5815 5814 5813 5812 5811 5810 5810 5810 5810 5810 5810 5810 5810 5810 5811 5811 5811 5811 5812 5812 5812 5813 5813 5813 5813 5813 5814 5814 5814 5815 5815 5816 5816 5817 5817 5818 5818 5819 5819
5814 5813 5813 5812 5811 5810 5810 5809 5808 5807 5806 5806 5805 5805 5805 5805 5805 5806 5806 5806 5806 5807 5807 5807 5808 5808 5808 5808 5809 5809 5809 5809 5810 5810 5810 5811 5811 5812 5812 5813 5813 5814 5815
5811 5810 5809 5808 5807 5806 5805 5804 5804 5803 5802 5801 5801 5800 5800 5800 5800 5800 5801 5801 5801 5802 5802 5802 5802 5803 5803 5804 5804 5804 5804 5804 5805 5805 5805 5806 5806 5806 5807 5807 5808 5809 5809
5806 5805 5804 5803 5802 5801 5801 5800 5799 5798 5797 5796 5795 5795 5795 5794 5794 5795 5795 5796 5796 5796 5797 5797 5797 5797 5798 5798 5799 5799 5799 5799 5799 5800 5800 5800 5800 5801 5801 5801 5802 5803 5803
5802 5801 5799 5798 5797 5796 5795 5794 5793 5792 5791 5790 5790 5789 5789 5788 5789 5789 5789 5790 5790 5791 5791 5791 5791 5792 5792 5793 5793 5793 5794 5794 5794 5794 5794 5794 5794 5794 5795 5795 5796 5797 5797
5797 5796 5794 5793 5792 5791 5789 5788 5787 5786 5785 5784 5783 5783 5783 5782 5782 5783 5783 5783 5784 5785 5786 5786 5786 5786 5786 5786 5787 5787 5787 5788 5788 5788 5788 5788 5788 5788 5788 5789 5789 5790 5791
5791 5790 5788 5787 5786 5784 5783 5782 5781 5780 5778 5777 5777 5776 5776 5776 5776 5776 5776 5776 5777 5778 5779 5779 5779 5779 5779 5780 5780 5781 5781 5781 5781 5781 5781 5781 5781 5781 5781 5781 5782 5783 5784
5786 5784 5782 5780 5779 5778 5776 5775 5773 5772 5771 5771 5770 5770 5770 5769 5769 5769 5769 5769 5770 5771 5771 5772 5772 5772 5772 5772 5773 5773 5774 5774 5774 5774 5774 5774 5774 5773 5773 5774 5774 5775 5776
5779 5777 5775 5774 5772 5770 5769 5767 5766 5765 5764 5764 5763 5763 5763 5762 5762 5762 5762 5762 5762 5763 5764 5764 5765 5765 5765 5765 5765 5765 5766 5766 5766 5766 5766 5766 5766 5766 5766 5766 5767 5767 5768
5772 5770 5768 5767 5765 5763 5762 5760 5758 5757 5756 5756 5756 5755 5755 5755 5755 5755 5755 5755 5755 5755 5755 5756 5757 5757 5757 5757 5757 5757 5758 5758 5758 5758 5758 5758 5758 5758 5758 5759 5759 5760 5761
5765 5763 5761 5760 5758 5756 5754 5752 5751 5749 5749 5748 5748 5747 5747 5747 5747 5747 5747 5747 5747 5747 5747 5748 5748 5749 5749 5749 5749 5749 5750 5750 5750 5750 5750 5750 5750 5751 5751 5752 5752 5753 5754
5758 5756 5754 5752 5751 5749 5747 5745 5743 5742 5741 5741 5740 5739 5739 5738 5738 5738 5738 5738 5738 5739 5739 5739 5739 5740 5740 5740 5741 5741 5741 5741 5741 5742 5742 5742 5742 5743 5743 5744 5744 5745 5746
5750 5749 5747 5745 5744 5742 5740 5738 5736 5735 5734 5733 5732 5731 5730 5730 5730 5730 5730 5730 5730 5730 5730 5730 5731 5731 5731 5731 5732 5732 5732 5733 5733 5734 5733 5734 5734 5734 5735 5735 5736 5737 5738
5743 5741 5739 5738 5736 5735 5732 5730 5729 5727 5726 5725 5724 5723 5722 5722 5722 5722 5721 5721 5721 5721 5721 5722 5722 5722 5722 5723 5723 5723 5723 5723 5724 5724 5724 5725 5725 5725 5726 5726 5727 5729 5729
5734 5733 5732 5730 5728 5726 5724 5722 5721 5719 5718 5717 5716 5715 5714 5714 5713 5713 5713 5713 5712 5712 5712 5713 5713 5713 5713 5713 5713 5714 5714 5714 5714 5714 5714 5715 5716 5716 5716 5717 5718 5719 5720
5726 5725 5723 5721 5720 5718 5716 5714 5712 5711 5710 5709 5708 5707 5706 5706 5705 5705 5704 5704 5704 5704 5704 5704 5704 5704 5704 5704 5704 5704 5705 5704 5705 5705 5705 5705 5706 5706 5707 5707 5708 5709 5711
5717 5716 5715 5713 5712 5710 5708 5706 5704 5703 5702 5701 5700 5699 5698 5697 5696 5696 5696 5696 5696 5696 5695 5695 5695 5695 5695 5695 5695 5695 5695 5695 5695 5696 5696 5696 5697 5697 5698 5698 5698 5699 5700